CW8399 Weather Reports


Display with metric or nautical units.
time (UTC)temp
F
wind
direction
speed
MPH
gust
MPH
rain 1hr
in
rain 24hr
in
rain mn
in
humidity
%
barometer
mb
20260903001342 95 357 10.0 20.0 0.00 0.00 0.00
20260903000835 95 359 12.0 22.0 0.00 0.00 0.00
20260903000335 95 354 11.0 22.0 0.00 0.00 0.00
20260902235834 95 358 14.0 21.0 0.00 0.00 0.00
20260902235333 96 352 13.0 25.0 0.00 0.00 0.00
20260902234833 96 342 16.0 25.0 0.00 0.00 0.00
20260902234334 96 359 12.0 22.0 0.00 0.00 0.00
20260902232825 96 350 18.0 27.0 0.00 0.00 0.00
20260902232324 96 353 9.0 19.0 0.00 0.00 0.00
20260902231826 96 358 6.0 16.0 0.00 0.00 0.00
20260902230823 96 359 10.0 16.0 0.00 0.00 0.00
20260902230322 96 0 6.0 16.0 0.00 0.00 0.00
20260902225823 96 354 8.0 22.0 0.00 0.00 0.00
20260902225325 96 353 9.0 22.0 0.00 0.00 0.00
20260902224831 96 0 7.0 16.0 0.00 0.00 0.00
20260902224334 96 0 6.0 14.0 0.00 0.00 0.00
20260902223825 96 359 7.0 16.0 0.00 0.00 0.00
20260902223325 96 355 9.0 16.0 0.00 0.00 0.00
20260902222826 96 357 7.0 13.0 0.00 0.00 0.00
20260902222330 96 0 7.0 26.0 0.00 0.00 0.00
20260902221832 96 356 10.0 26.0 0.00 0.00 0.00
20260902221332 96 0 11.0 20.0 0.00 0.00 0.00
20260902220826 96 0 8.0 18.0 0.00 0.00 0.00
20260902220326 96 348 8.0 21.0 0.00 0.00 0.00
20260902215828 96 0 12.0 21.0 0.00 0.00 0.00
20260902215328 96 355 15.0 21.0 0.00 0.00 0.00
20260902214826 96 356 10.0 23.0 0.00 0.00 0.00
20260902213825 96 359 9.0 19.0 0.00 0.00 0.00
20260902213325 96 359 10.0 22.0 0.00 0.00 0.00
20260902212825 96 356 14.0 22.0 0.00 0.00 0.00
20260902212324 96 347 9.0 23.0 0.00 0.00 0.00
20260902211824 96 359 11.0 23.0 0.00 0.00 0.00
20260902210822 96 359 12.0 23.0 0.00 0.00 0.00
20260902205825 96 355 7.0 21.0 0.00 0.00 0.00
20260902205327 96 353 12.0 21.0 0.00 0.00 0.00
20260902204828 96 353 11.0 22.0 0.00 0.00 0.00
20260902204328 96 357 11.0 22.0 0.00 0.00 0.00
20260902203821 95 356 9.0 22.0 0.00 0.00 0.00
20260902202825 96 359 13.0 20.0 0.00 0.00 0.00
20260902201829 95 341 13.0 23.0 0.00 0.00 0.00
20260902201336 95 359 13.0 23.0 0.00 0.00 0.00
20260902200827 95 0 7.0 19.0 0.00 0.00 0.00
20260902200328 95 359 11.0 19.0 0.00 0.00 0.00
20260902195832 95 355 12.0 21.0 0.00 0.00 0.00
20260902195331 95 343 14.0 23.0 0.00 0.00 0.00
20260902194830 94 350 13.0 23.0 0.00 0.00 0.00
20260902193825 94 358 14.0 21.0 0.00 0.00 0.00
20260902193325 94 358 8.0 18.0 0.00 0.00 0.00
20260902192822 94 359 8.0 16.0 0.00 0.00 0.00
20260902191830 94 338 8.0 18.0 0.00 0.00 0.00
20260902191332 93 356 6.0 16.0 0.00 0.00 0.00
20260902190826 93 355 13.0 16.0 0.00 0.00 0.00
20260902190328 93 357 8.0 19.0 0.00 0.00 0.00
20260902185834 93 349 8.0 19.0 0.00 0.00 0.00
20260902185334 93 358 5.0 14.0 0.00 0.00 0.00
20260902184833 92 353 7.0 14.0 0.00 0.00 0.00
20260902184336 92 355 5.0 14.0 0.00 0.00 0.00
20260902183828 92 356 5.0 11.0 0.00 0.00 0.00
20260902183329 91 0 4.0 13.0 0.00 0.00 0.00
20260902182831 91 359 7.0 13.0 0.00 0.00 0.00
20260902182331 91 0 7.0 12.0 0.00 0.00 0.00
20260902181831 91 357 6.0 13.0 0.00 0.00 0.00
20260902181332 90 356 9.0 14.0 0.00 0.00 0.00
20260902180824 90 355 8.0 15.0 0.00 0.00 0.00
20260902180325 90 339 11.0 15.0 0.00 0.00 0.00
20260902175826 90 345 9.0 13.0 0.00 0.00 0.00
20260902175334 89 354 9.0 13.0 0.00 0.00 0.00
20260902174835 89 2 6.0 19.0 0.00 0.00 0.00
20260902173831 88 353 9.0 16.0 0.00 0.00 0.00
20260902172835 88 359 10.0 15.0 0.00 0.00 0.00
20260902172320 88 0 9.0 15.0 0.00 0.00 0.00
20260902171820 87 359 6.0 16.0 0.00 0.00 0.00
20260902171342 87 358 10.0 16.0 0.00 0.00 0.00
20260902170833 87 0 7.0 16.0 0.00 0.00 0.00
20260902170335 86 0 10.0 16.0 0.00 0.00 0.00
20260902165836 86 359 8.0 13.0 0.00 0.00 0.00
20260902165335 85 350 9.0 14.0 0.00 0.00 0.00
20260902164834 85 358 6.0 16.0 0.00 0.00 0.00
20260902164338 85 351 5.0 16.0 0.00 0.00 0.00
20260902163337 84 357 6.0 13.0 0.00 0.00 0.00
20260902162837 83 356 8.0 14.0 0.00 0.00 0.00
20260902162319 83 358 6.0 16.0 0.00 0.00 0.00
20260902161821 82 357 9.0 16.0 0.00 0.00 0.00
20260902161343 82 358 8.0 18.0 0.00 0.00 0.00
20260902160835 82 0 8.0 18.0 0.00 0.00 0.00
20260902160338 81 352 8.0 18.0 0.00 0.00 0.00
20260902155837 81 0 9.0 15.0 0.00 0.00 0.00
20260902155318 81 0 8.0 14.0 0.00 0.00 0.00
20260902154822 80 359 10.0 16.0 0.00 0.00 0.00
20260902154344 80 356 6.0 16.0 0.00 0.00 0.00
20260902153837 80 0 7.0 12.0 0.00 0.00 0.00
20260902153321 79 358 7.0 12.0 0.00 0.00 0.00
20260902152821 79 9 8.0 12.0 0.00 0.00 0.00
20260902152322 79 0 8.0 12.0 0.00 0.00 0.00
20260902151346 78 355 10.0 17.0 0.00 0.00 0.00
20260902145824 77 354 4.0 8.0 0.00 0.00 0.00
20260902145325 77 358 5.0 7.0 0.00 0.00 0.00
20260902144827 77 359 3.0 9.0 0.00 0.00 0.00
20260902144331 77 358 5.0 9.0 0.00 0.00 0.00
20260902143826 77 357 4.0 10.0 0.00 0.00 0.00
20260902143325 76 355 6.0 10.0 0.00 0.00 0.00
20260902142330 76 357 4.0 9.0 0.00 0.00 0.00
20260902141832 76 2 5.0 8.0 0.00 0.00 0.00
20260902141335 76 0 4.0 6.0 0.00 0.00 0.00
20260902140832 76 0 3.0 6.0 0.00 0.00 0.00
20260902140331 76 0 2.0 6.0 0.00 0.00 0.00
20260902135834 76 0 2.0 4.0 0.00 0.00 0.00
20260902135333 76 0 1.0 5.0 0.00 0.00 0.00
20260902134837 76 0 2.0 7.0 0.00 0.00 0.00
20260902134338 76 329 2.0 7.0 0.00 0.00 0.00
20260902133829 76 0 2.0 4.0 0.00 0.00 0.00
20260902133331 76 0 2.0 4.0 0.00 0.00 0.00
20260902132833 77 0 2.0 5.0 0.00 0.00 0.00
20260902132337 77 0 3.0 10.0 0.00 0.00 0.00
20260902131836 77 356 5.0 10.0 0.00 0.00 0.00
20260902131339 77 340 3.0 7.0 0.00 0.00 0.00
20260902130832 77 330 4.0 8.0 0.00 0.00 0.00
20260902130335 77 337 4.0 8.0 0.00 0.00 0.00
20260902124826 77 0 3.0 7.0 0.00 0.00 0.00
20260902124346 77 355 4.0 5.0 0.00 0.00 0.00
20260902123820 77 0 3.0 5.0 0.00 0.00 0.00
20260902123323 77 344 2.0 7.0 0.00 0.00 0.00
20260902121829 78 0 5.0 11.0 0.00 0.00 0.00
20260902121331 78 357 7.0 11.0 0.00 0.00 0.00
20260902120823 78 355 4.0 9.0 0.00 0.00 0.00
20260902120325 78 0 1.0 11.0 0.00 0.00 0.00
20260902115330 78 0 4.0 12.0 0.00 0.00 0.00
20260902114336 78 0 8.0 14.0 0.00 0.00 0.00
20260902113828 78 0 4.0 9.0 0.00 0.00 0.00
20260902113332 78 358 4.0 7.0 0.00 0.00 0.00
20260902112832 79 0 2.0 10.0 0.00 0.00 0.00
20260902112332 79 354 4.0 10.0 0.00 0.00 0.00
20260902111835 79 0 5.0 11.0 0.00 0.00 0.00
20260902111338 79 359 6.0 12.0 0.00 0.00 0.00
20260902110834 79 359 8.0 14.0 0.00 0.00 0.00
20260902110329 79 0 7.0 17.0 0.00 0.00 0.00
20260902105828 79 357 12.0 17.0 0.00 0.00 0.00
20260902105331 79 0 7.0 16.0 0.00 0.00 0.00
20260902104833 79 0 7.0 15.0 0.00 0.00 0.00
20260902104335 79 0 9.0 15.0 0.00 0.00 0.00
20260902103826 80 359 9.0 15.0 0.00 0.00 0.00
20260902103326 80 359 8.0 15.0 0.00 0.00 0.00
20260902102830 80 0 7.0 13.0 0.00 0.00 0.00
20260902102333 80 0 8.0 13.0 0.00 0.00 0.00
20260902101834 80 0 7.0 12.0 0.00 0.00 0.00
20260902101336 80 359 6.0 8.0 0.00 0.00 0.00
20260902100829 80 0 4.0 6.0 0.00 0.00 0.00
20260902095336 81 0 1.0 7.0 0.00 0.00 0.00
20260902094836 81 0 3.0 8.0 0.00 0.00 0.00
20260902094341 81 0 5.0 8.0 0.00 0.00 0.00
20260902093833 81 0 3.0 7.0 0.00 0.00 0.00
20260902093333 81 0 2.0 11.0 0.00 0.00 0.00
20260902092837 81 356 3.0 11.0 0.00 0.00 0.00
20260902092336 81 0 3.0 8.0 0.00 0.00 0.00
20260902091821 81 0 4.0 11.0 0.00 0.00 0.00
20260902091344 82 0 2.0 11.0 0.00 0.00 0.00
20260902090836 82 0 4.0 11.0 0.00 0.00 0.00
20260902090318 82 0 4.0 13.0 0.00 0.00 0.00
20260902085323 82 0 5.0 10.0 0.00 0.00 0.00
20260902084845 82 0 5.0 9.0 0.00 0.00 0.00
20260902083838 82 0 4.0 11.0 0.00 0.00 0.00
20260902083318 82 0 3.0 12.0 0.00 0.00 0.00
20260902082322 83 0 4.0 13.0 0.00 0.00 0.00
20260902081328 83 351 4.0 13.0 0.00 0.00 0.00
20260902080819 83 0 8.0 16.0 0.00 0.00 0.00
20260902080320 83 355 7.0 17.0 0.00 0.00 0.00
20260902075822 83 352 8.0 17.0 0.00 0.00 0.00
20260902075326 83 0 7.0 16.0 0.00 0.00 0.00
20260902074830 83 358 7.0 16.0 0.00 0.00 0.00
20260902073826 84 0 8.0 18.0 0.00 0.00 0.00
20260902073328 84 355 10.0 20.0 0.00 0.00 0.00
20260902072830 84 358 12.0 19.0 0.00 0.00 0.00
20260902072329 84 357 10.0 18.0 0.00 0.00 0.00
20260902071334 84 357 9.0 21.0 0.00 0.00 0.00
20260902070827 84 0 9.0 20.0 0.00 0.00 0.00
20260902070327 84 357 12.0 20.0 0.00 0.00 0.00
20260902065828 84 358 10.0 20.0 0.00 0.00 0.00
20260902065331 84 0 11.0 23.0 0.00 0.00 0.00
20260902064831 84 0 8.0 23.0 0.00 0.00 0.00
20260902064336 85 352 9.0 20.0 0.00 0.00 0.00
20260902063338 85 358 11.0 22.0 0.00 0.00 0.00
20260902062818 85 359 11.0 19.0 0.00 0.00 0.00
20260902062320 85 0 10.0 18.0 0.00 0.00 0.00
20260902061822 85 346 11.0 18.0 0.00 0.00 0.00
20260902061341 85 0 10.0 19.0 0.00 0.00 0.00
20260902060831 85 359 7.0 19.0 0.00 0.00 0.00
20260902060332 85 359 9.0 18.0 0.00 0.00 0.00
20260902055320 85 350 6.0 15.0 0.00 0.00 0.00
20260902054344 86 359 6.0 14.0 0.00 0.00 0.00
20260902053837 86 0 7.0 14.0 0.00 0.00 0.00
20260902053319 86 0 5.0 15.0 0.00 0.00 0.00
20260902052837 86 359 9.0 15.0 0.00 0.00 0.00
20260902052322 86 358 7.0 13.0 0.00 0.00 0.00
20260902051824 86 0 7.0 13.0 0.00 0.00 0.00
20260902050825 87 354 6.0 14.0 0.00 0.00 0.00
20260902050326 87 349 9.0 14.0 0.00 0.00 0.00
20260902045829 87 356 4.0 14.0 0.00 0.00 0.00
20260902045330 87 0 7.0 14.0 0.00 0.00 0.00
20260902044832 87 0 7.0 16.0 0.00 0.00 0.00
20260902043330 88 358 7.0 12.0 0.00 0.00 0.00
20260902042832 88 0 5.0 10.0 0.00 0.00 0.00
20260902041836 88 0 4.0 13.0 0.00 0.00 0.00
20260902041338 88 0 5.0 13.0 0.00 0.00 0.00
20260902040830 88 0 6.0 11.0 0.00 0.00 0.00
20260902040333 88 358 5.0 9.0 0.00 0.00 0.00
20260902035835 88 0 4.0 10.0 0.00 0.00 0.00
20260902035337 89 0 4.0 10.0 0.00 0.00 0.00
20260902034839 89 0 3.0 10.0 0.00 0.00 0.00
20260902034330 89 0 4.0 10.0 0.00 0.00 0.00
20260902033832 89 349 4.0 13.0 0.00 0.00 0.00
20260902033334 89 357 6.0 13.0 0.00 0.00 0.00
20260902032834 89 0 4.0 7.0 0.00 0.00 0.00
20260902032335 89 0 2.0 9.0 0.00 0.00 0.00
20260902031836 89 0 4.0 9.0 0.00 0.00 0.00
20260902030830 90 0 5.0 12.0 0.00 0.00 0.00
20260902030331 90 0 5.0 9.0 0.00 0.00 0.00
20260902025830 90 0 2.0 7.0 0.00 0.00 0.00
20260902025318 90 0 4.0 7.0 0.00 0.00 0.00
20260902024820 91 0 3.0 4.0 0.00 0.00 0.00
20260902024343 91 0 2.0 4.0 0.00 0.00 0.00
20260902023832 91 0 2.0 4.0 0.00 0.00 0.00
20260902023334 91 0 2.0 6.0 0.00 0.00 0.00
20260902022836 92 0 2.0 7.0 0.00 0.00 0.00
20260902022336 92 0 3.0 7.0 0.00 0.00 0.00
20260902021837 92 0 3.0 7.0 0.00 0.00 0.00
20260902020831 93 0 4.0 15.0 0.00 0.00 0.00
20260902015835 93 352 4.0 17.0 0.00 0.00 0.00
20260902015337 93 358 11.0 17.0 0.00 0.00 0.00
20260902014836 94 0 5.0 15.0 0.00 0.00 0.00
20260902014338 94 357 10.0 20.0 0.00 0.00 0.00
20260902013830 94 357 7.0 20.0 0.00 0.00 0.00
20260902013333 94 0 8.0 20.0 0.00 0.00 0.00
20260902012837 95 353 10.0 25.0 0.00 0.00 0.00
20260902012319 95 350 7.0 19.0 0.00 0.00 0.00
20260902011820 95 358 8.0 20.0 0.00 0.00 0.00
20260902011343 95 346 13.0 20.0 0.00 0.00 0.00
20260902010834 95 0 9.0 20.0 0.00 0.00 0.00
20260902010336 96 0 7.0 21.0 0.00 0.00 0.00
20260902005819 96 358 13.0 21.0 0.00 0.00 0.00
20260902005320 96 359 9.0 27.0 0.00 0.00 0.00
20260902004821 96 356 12.0 27.0 0.00 0.00 0.00
20260902004343 96 0 14.0 26.0 0.00 0.00 0.00
20260902003836 96 358 14.0 25.0 0.00 0.00 0.00
20260902003321 96 359 10.0 25.0 0.00 0.00 0.00
20260902002825 96 358 14.0 24.0 0.00 0.00 0.00
20260902002324 96 357 16.0 24.0 0.00 0.00 0.00
20260902001824 96 359 16.0 26.0 0.00 0.00 0.00